| time (UTC) | temp F | wind direction | speed MPH | gust MPH | rain 1hr in | rain 24hr in | rain mn in | humidity % | barometer mb |
| 20260505000108 | 74 | 65 | 5.0 | 12.0 | 0.01 | 0.51 | 0.49 | 86 | 1014.6 |
| 20260504235601 | 74 | 89 | 3.0 | 11.0 | 0.01 | 0.57 | 0.49 | 86 | 1014.5 |
| 20260504235100 | 74 | 127 | 6.0 | 11.0 | 0.01 | 0.57 | 0.49 | 86 | 1014.5 |
| 20260504234632 | 74 | 69 | 4.0 | 12.0 | 0.01 | 0.57 | 0.49 | 86 | 1014.5 |
| 20260504234059 | 74 | 142 | 4.0 | 12.0 | 0.01 | 0.57 | 0.49 | 87 | 1014.4 |
| 20260504233600 | 74 | 125 | 5.0 | 12.0 | 0.01 | 0.57 | 0.49 | 87 | 1014.4 |
| 20260504233058 | 74 | 54 | 3.0 | 11.0 | 0.01 | 0.57 | 0.49 | 87 | 1014.2 |
| 20260504232601 | 74 | 104 | 5.0 | 11.0 | 0.01 | 0.57 | 0.49 | 87 | 1014.0 |
| 20260504232057 | 74 | 108 | 4.0 | 10.0 | 0.01 | 0.57 | 0.49 | 87 | 1014.0 |
| 20260504231605 | 74 | 113 | 4.0 | 10.0 | 0.01 | 0.57 | 0.49 | 86 | 1013.9 |
| 20260504231057 | 74 | 24 | 4.0 | 10.0 | 0.01 | 0.57 | 0.49 | 87 | 1013.9 |
| 20260504230600 | 74 | 19 | 3.0 | 9.0 | 0.01 | 0.57 | 0.49 | 86 | 1014.0 |
| 20260504230100 | 74 | 66 | 2.0 | 8.0 | 0.00 | 0.56 | 0.48 | 86 | 1014.1 |
| 20260504225557 | 74 | 84 | 2.0 | 11.0 | 0.00 | 0.58 | 0.48 | 86 | 1014.2 |
| 20260504225102 | 74 | 68 | 3.0 | 11.0 | 0.00 | 0.58 | 0.48 | 86 | 1014.2 |
| 20260504224602 | 74 | 118 | 3.0 | 11.0 | 0.00 | 0.58 | 0.48 | 86 | 1014.2 |
| 20260504224102 | 74 | 113 | 4.0 | 11.0 | 0.00 | 0.58 | 0.48 | 86 | 1014.1 |
| 20260504223558 | 74 | 165 | 2.0 | 11.0 | 0.00 | 0.58 | 0.48 | 86 | 1014.1 |
| 20260504223058 | 74 | 61 | 3.0 | 11.0 | 0.00 | 0.58 | 0.48 | 86 | 1014.1 |
| 20260504222602 | 74 | 111 | 5.0 | 11.0 | 0.00 | 0.58 | 0.48 | 85 | 1014.0 |
| 20260504222057 | 74 | 94 | 2.0 | 10.0 | 0.00 | 0.58 | 0.48 | 85 | 1014.0 |
| 20260504221609 | 74 | 88 | 3.0 | 11.0 | 0.00 | 0.58 | 0.48 | 85 | 1014.0 |
| 20260504221057 | 75 | 108 | 3.0 | 11.0 | 0.00 | 0.58 | 0.48 | 85 | 1014.0 |
| 20260504220557 | 75 | 107 | 4.0 | 11.0 | 0.00 | 0.58 | 0.48 | 85 | 1013.9 |
| 20260504220059 | 75 | 53 | 4.0 | 11.0 | 0.00 | 0.58 | 0.48 | 85 | 1014.0 |
| 20260504215557 | 75 | 58 | 2.0 | 11.0 | 0.00 | 0.58 | 0.48 | 84 | 1014.0 |
| 20260504215100 | 75 | 0 | 4.0 | 11.0 | 0.00 | 0.58 | 0.48 | 84 | 1013.9 |
| 20260504214558 | 76 | 113 | 5.0 | 11.0 | 0.00 | 0.58 | 0.48 | 84 | 1013.9 |
| 20260504214057 | 76 | 40 | 2.0 | 8.0 | 0.00 | 0.58 | 0.48 | 83 | 1013.9 |
| 20260504213601 | 76 | 86 | 2.0 | 9.0 | 0.00 | 0.58 | 0.48 | 83 | 1014.1 |
| 20260504213058 | 76 | 90 | 2.0 | 9.0 | 0.00 | 0.58 | 0.48 | 82 | 1014.0 |
| 20260504212557 | 76 | 57 | 2.0 | 10.0 | 0.00 | 0.58 | 0.48 | 82 | 1013.9 |
| 20260504212100 | 76 | 37 | 5.0 | 10.0 | 0.00 | 0.58 | 0.48 | 81 | 1014.0 |
| 20260504211558 | 76 | 78 | 2.0 | 9.0 | 0.00 | 0.58 | 0.48 | 81 | 1014.1 |
| 20260504211058 | 76 | 42 | 4.0 | 15.0 | 0.00 | 0.58 | 0.48 | 80 | 1014.0 |
| 20260504210559 | 76 | 26 | 3.0 | 15.0 | 0.00 | 0.58 | 0.48 | 81 | 1014.2 |
| 20260504210110 | 76 | 81 | 6.0 | 12.0 | 0.00 | 0.58 | 0.48 | 80 | 1014.3 |
| 20260504205557 | 76 | 130 | 5.0 | 12.0 | 0.00 | 0.58 | 0.48 | 80 | 1014.2 |
| 20260504205058 | 76 | 78 | 4.0 | 12.0 | 0.00 | 0.58 | 0.48 | 81 | 1014.2 |
| 20260504204605 | 76 | 130 | 5.0 | 11.0 | 0.00 | 0.58 | 0.48 | 81 | 1014.2 |
| 20260504204100 | 76 | 116 | 4.0 | 10.0 | 0.00 | 0.58 | 0.48 | 82 | 1014.1 |
| 20260504203557 | 76 | 72 | 4.0 | 10.0 | 0.00 | 0.58 | 0.48 | 82 | 1014.3 |
| 20260504203104 | 76 | 113 | 4.0 | 10.0 | 0.00 | 0.58 | 0.48 | 81 | 1014.4 |
| 20260504202557 | 76 | 86 | 3.0 | 11.0 | 0.00 | 0.58 | 0.48 | 81 | 1014.5 |
| 20260504202102 | 76 | 91 | 4.0 | 12.0 | 0.00 | 0.58 | 0.48 | 81 | 1014.6 |
| 20260504201614 | 77 | 99 | 3.0 | 12.0 | 0.00 | 0.58 | 0.48 | 81 | 1014.5 |
| 20260504201057 | 77 | 58 | 2.0 | 10.0 | 0.00 | 0.58 | 0.48 | 80 | 1014.6 |
| 20260504200600 | 77 | 57 | 3.0 | 11.0 | 0.00 | 0.58 | 0.48 | 80 | 1014.6 |
| 20260504195559 | 77 | 0 | 6.0 | 13.0 | 0.00 | 0.58 | 0.48 | 79 | 1014.6 |
| 20260504195058 | 77 | 101 | 4.0 | 12.0 | 0.00 | 0.58 | 0.48 | 80 | 1014.5 |
| 20260504194610 | 77 | 88 | 5.0 | 14.0 | 0.00 | 0.58 | 0.48 | 81 | 1014.6 |
| 20260504194100 | 76 | 81 | 6.0 | 14.0 | 0.00 | 0.58 | 0.48 | 81 | 1014.6 |
| 20260504193559 | 76 | 95 | 5.0 | 14.0 | 0.00 | 0.58 | 0.48 | 82 | 1014.7 |
| 20260504193101 | 76 | 67 | 3.0 | 12.0 | 0.00 | 0.58 | 0.48 | 84 | 1014.8 |
| 20260504192604 | 76 | 55 | 5.0 | 12.0 | 0.00 | 0.58 | 0.48 | 85 | 1014.7 |
| 20260504192057 | 75 | 110 | 5.0 | 13.0 | 0.00 | 0.58 | 0.48 | 86 | 1014.7 |
| 20260504191558 | 75 | 107 | 4.0 | 13.0 | 0.00 | 0.58 | 0.48 | 86 | 1014.7 |
| 20260504191057 | 75 | 108 | 4.0 | 13.0 | 0.00 | 0.58 | 0.48 | 87 | 1014.9 |
| 20260504190600 | 75 | 61 | 6.0 | 12.0 | 0.01 | 0.58 | 0.48 | 87 | 1015.2 |
| 20260504190130 | 74 | 42 | 4.0 | 11.0 | 0.01 | 0.58 | 0.48 | 88 | 1015.1 |
| 20260504185556 | 74 | 108 | 4.0 | 11.0 | 0.01 | 0.58 | 0.48 | 88 | 1015.2 |
| 20260504185100 | 74 | 82 | 2.0 | 10.0 | 0.02 | 0.58 | 0.48 | 88 | 1015.4 |
| 20260504184559 | 74 | 128 | 4.0 | 10.0 | 0.02 | 0.58 | 0.48 | 88 | 1015.4 |
| 20260504184102 | 74 | 88 | 5.0 | 10.0 | 0.02 | 0.58 | 0.48 | 88 | 1015.5 |
| 20260504183600 | 74 | 53 | 5.0 | 9.0 | 0.02 | 0.58 | 0.48 | 87 | 1015.5 |
| 20260504183058 | 75 | 117 | 4.0 | 12.0 | 0.02 | 0.58 | 0.48 | 88 | 1015.6 |
| 20260504182601 | 74 | 83 | 6.0 | 12.0 | 0.02 | 0.58 | 0.48 | 87 | 1015.8 |
| 20260504182059 | 74 | 39 | 4.0 | 10.0 | 0.05 | 0.58 | 0.48 | 87 | 1015.8 |
| 20260504181600 | 74 | 120 | 4.0 | 10.0 | 0.07 | 0.58 | 0.48 | 87 | 1015.9 |
| 20260504181059 | 74 | 57 | 4.0 | 11.0 | 0.07 | 0.58 | 0.48 | 87 | 1016.0 |
| 20260504180600 | 74 | 130 | 4.0 | 11.0 | 0.06 | 0.57 | 0.47 | 87 | 1016.0 |
| 20260504180155 | 74 | 107 | 3.0 | 14.0 | 0.06 | 0.57 | 0.47 | 87 | 1016.0 |
| 20260504175559 | 74 | 90 | 2.0 | 14.0 | 0.06 | 0.57 | 0.47 | 87 | 1016.2 |
| 20260504175101 | 74 | 121 | 3.0 | 7.0 | 0.05 | 0.56 | 0.46 | 87 | 1016.1 |
| 20260504174557 | 74 | 22 | 3.0 | 7.0 | 0.05 | 0.56 | 0.46 | 87 | 1016.2 |
| 20260504174100 | 74 | 101 | 1.0 | 13.0 | 0.06 | 0.56 | 0.46 | 87 | 1016.2 |
| 20260504173559 | 73 | 51 | 3.0 | 14.0 | 0.06 | 0.56 | 0.46 | 87 | 1016.1 |
| 20260504173125 | 73 | 55 | 5.0 | 14.0 | 0.07 | 0.56 | 0.46 | 86 | 1016.1 |
| 20260504172556 | 74 | 63 | 3.0 | 13.0 | 0.07 | 0.56 | 0.46 | 86 | 1016.1 |
| 20260504172059 | 74 | 44 | 6.0 | 11.0 | 0.04 | 0.52 | 0.43 | 86 | 1016.2 |
| 20260504171557 | 75 | 43 | 2.0 | 7.0 | 0.03 | 0.51 | 0.41 | 87 | 1016.1 |
| 20260504171100 | 75 | 90 | 2.0 | 7.0 | 0.05 | 0.51 | 0.41 | 87 | 1015.9 |
| 20260504170559 | 75 | 114 | 3.0 | 7.0 | 0.07 | 0.51 | 0.41 | 87 | 1016.0 |
| 20260504151058 | 75 | 49 | 1.0 | 9.0 | 0.27 | 0.39 | 0.29 | 85 | 1016.3 |
| 20260504150600 | 75 | 81 | 2.0 | 9.0 | 0.25 | 0.37 | 0.27 | 84 | 1016.3 |
| 20260504141058 | 77 | 36 | 2.0 | 6.0 | 0.00 | 0.12 | 0.02 | 81 | 1015.9 |
| 20260504140557 | 76 | 37 | 1.0 | 8.0 | 0.00 | 0.12 | 0.02 | 82 | 1015.8 |
| 20260504140119 | 76 | 17 | 1.0 | 8.0 | 0.00 | 0.12 | 0.02 | 83 | 1015.9 |
| 20260504130557 | 74 | 333 | 2.0 | 8.0 | 0.00 | 0.14 | 0.02 | 89 | 1015.4 |
| 20260504120113 | 73 | 0 | 0.0 | 0.0 | 0.00 | 0.27 | 0.02 | 90 | 1014.6 |
| 20260504110601 | 72 | 0 | 0.0 | 0.0 | 0.00 | 0.75 | 0.02 | 90 | 1014.3 |
| 20260504100559 | 73 | 0 | 0.0 | 2.0 | 0.00 | 0.80 | 0.02 | 89 | 1014.3 |
| 20260504081558 | 74 | 0 | 0.0 | 0.0 | 0.02 | 0.80 | 0.02 | 88 | 1013.3 |
| 20260504081057 | 74 | 0 | 0.0 | 0.0 | 0.02 | 0.80 | 0.02 | 88 | 1013.3 |
| 20260504080557 | 74 | 0 | 0.0 | 1.0 | 0.02 | 0.80 | 0.02 | 88 | 1013.0 |
| 20260504050558 | 75 | 0 | 0.0 | 0.0 | 0.00 | 0.78 | 0.00 | 86 | 1015.6 |
| 20260504050141 | 75 | 0 | 0.0 | 0.0 | 0.00 | 0.78 | 0.00 | 86 | 1015.6 |
| 20260504045557 | 75 | 0 | 0.0 | 0.0 | 0.00 | 0.78 | 0.00 | 86 | 1015.7 |
| 20260504045058 | 75 | 0 | 0.0 | 0.0 | 0.00 | 0.78 | 0.00 | 86 | 1015.7 |
| 20260504044607 | 75 | 0 | 0.0 | 0.0 | 0.00 | 0.78 | 0.00 | 86 | 1015.7 |
| 20260504044059 | 75 | 0 | 0.0 | 0.0 | 0.00 | 0.78 | 0.00 | 86 | 1015.4 |
| 20260504043600 | 75 | 0 | 0.0 | 0.0 | 0.00 | 0.78 | 0.00 | 86 | 1015.4 |
| 20260504043102 | 75 | 0 | 0.0 | 0.0 | 0.00 | 0.78 | 0.00 | 86 | 1015.3 |
| 20260504042558 | 75 | 0 | 0.0 | 3.0 | 0.00 | 0.78 | 0.00 | 86 | 1015.3 |
| 20260504042057 | 75 | 0 | 0.0 | 4.0 | 0.00 | 0.78 | 0.00 | 86 | 1015.3 |
| 20260504041557 | 75 | 0 | 1.0 | 4.0 | 0.00 | 0.78 | 0.00 | 86 | 1015.2 |
| 20260504041058 | 75 | 74 | 0.0 | 3.0 | 0.00 | 0.78 | 0.00 | 87 | 1015.4 |
| 20260504040558 | 75 | 0 | 0.0 | 3.0 | 0.00 | 0.78 | 0.00 | 87 | 1015.5 |
| 20260504040108 | 75 | 0 | 0.0 | 3.0 | 0.00 | 0.78 | 0.00 | 87 | 1015.6 |
| 20260504035558 | 74 | 0 | 0.0 | 5.0 | 0.00 | 0.78 | 0.78 | 87 | 1015.6 |
| 20260504035101 | 75 | 22 | 1.0 | 6.0 | 0.00 | 0.78 | 0.78 | 87 | 1015.6 |
| 20260504034600 | 74 | 0 | 0.0 | 6.0 | 0.00 | 0.78 | 0.78 | 87 | 1015.6 |
| 20260504034059 | 74 | 0 | 1.0 | 5.0 | 0.00 | 0.78 | 0.78 | 87 | 1015.7 |
| 20260504033556 | 74 | 80 | 1.0 | 6.0 | 0.00 | 0.78 | 0.78 | 87 | 1015.7 |
| 20260504033058 | 74 | 0 | 2.0 | 6.0 | 0.00 | 0.78 | 0.78 | 87 | 1015.7 |
| 20260504032559 | 74 | 60 | 0.0 | 4.0 | 0.00 | 0.78 | 0.78 | 87 | 1015.9 |
| 20260504032103 | 74 | 0 | 0.0 | 4.0 | 0.00 | 0.78 | 0.78 | 87 | 1015.9 |
| 20260504031623 | 74 | 0 | 0.0 | 4.0 | 0.00 | 0.78 | 0.78 | 88 | 1015.7 |
| 20260504031100 | 74 | 0 | 0.0 | 3.0 | 0.00 | 0.78 | 0.78 | 88 | 1015.8 |
| 20260504030559 | 74 | 0 | 0.0 | 4.0 | 0.00 | 0.78 | 0.78 | 88 | 1015.8 |
| 20260504030100 | 74 | 0 | 0.0 | 4.0 | 0.00 | 0.78 | 0.78 | 87 | 1015.9 |
| 20260504025559 | 74 | 352 | 1.0 | 4.0 | 0.00 | 0.78 | 0.78 | 88 | 1015.9 |
| 20260504025057 | 74 | 59 | 0.0 | 0.0 | 0.00 | 0.78 | 0.78 | 88 | 1015.8 |
| 20260504024601 | 74 | 0 | 0.0 | 4.0 | 0.00 | 0.78 | 0.78 | 88 | 1015.8 |
| 20260504024059 | 74 | 0 | 0.0 | 5.0 | 0.00 | 0.78 | 0.78 | 88 | 1015.8 |
| 20260504023558 | 74 | 0 | 0.0 | 5.0 | 0.00 | 0.78 | 0.78 | 88 | 1015.7 |
| 20260504023059 | 74 | 34 | 1.0 | 5.0 | 0.00 | 0.78 | 0.78 | 88 | 1015.7 |
| 20260504022559 | 74 | 9 | 1.0 | 6.0 | 0.00 | 0.78 | 0.78 | 88 | 1015.7 |
| 20260504022101 | 74 | 11 | 2.0 | 7.0 | 0.00 | 0.78 | 0.78 | 88 | 1015.7 |
| 20260504021609 | 74 | 360 | 1.0 | 7.0 | 0.00 | 0.78 | 0.78 | 88 | 1015.6 |
| 20260504021101 | 74 | 0 | 0.0 | 4.0 | 0.00 | 0.78 | 0.78 | 88 | 1015.7 |
| 20260504020601 | 74 | 0 | 0.0 | 4.0 | 0.00 | 0.78 | 0.78 | 88 | 1015.7 |
| 20260504020107 | 74 | 0 | 1.0 | 4.0 | 0.00 | 0.78 | 0.78 | 88 | 1015.7 |
| 20260504015600 | 74 | 0 | 0.0 | 4.0 | 0.00 | 0.78 | 0.78 | 88 | 1015.7 |
| 20260504015059 | 74 | 0 | 1.0 | 4.0 | 0.00 | 0.78 | 0.78 | 88 | 1015.6 |
| 20260504014601 | 74 | 350 | 0.0 | 2.0 | 0.00 | 0.78 | 0.78 | 88 | 1015.6 |
| 20260504014059 | 74 | 0 | 0.0 | 3.0 | 0.00 | 0.78 | 0.78 | 88 | 1015.5 |
| 20260504013557 | 74 | 0 | 0.0 | 4.0 | 0.00 | 0.78 | 0.78 | 87 | 1015.6 |
| 20260504013105 | 74 | 9 | 1.0 | 4.0 | 0.00 | 0.78 | 0.78 | 87 | 1015.6 |
| 20260504012559 | 74 | 352 | 1.0 | 4.0 | 0.00 | 0.78 | 0.78 | 87 | 1015.6 |
| 20260504012059 | 74 | 0 | 0.0 | 0.0 | 0.00 | 0.78 | 0.78 | 87 | 1015.5 |
| 20260504011600 | 74 | 0 | 0.0 | 0.0 | 0.00 | 0.78 | 0.78 | 87 | 1015.4 |
| 20260504011100 | 74 | 0 | 0.0 | 3.0 | 0.00 | 0.78 | 0.78 | 87 | 1015.6 |
| 20260504010556 | 74 | 0 | 0.0 | 3.0 | 0.00 | 0.78 | 0.78 | 87 | 1015.6 |
| 20260504010120 | 74 | 28 | 0.0 | 3.0 | 0.01 | 0.78 | 0.78 | 87 | 1015.6 |
| 20260504005559 | 74 | 0 | 0.0 | 3.0 | 0.05 | 0.78 | 0.78 | 87 | 1015.6 |
| 20260504005057 | 74 | 0 | 1.0 | 4.0 | 0.08 | 0.78 | 0.78 | 87 | 1015.6 |
| 20260504004558 | 74 | 352 | 1.0 | 4.0 | 0.08 | 0.78 | 0.78 | 87 | 1015.4 |
| 20260504004056 | 75 | 5 | 1.0 | 4.0 | 0.08 | 0.78 | 0.78 | 86 | 1015.3 |
| 20260504003558 | 75 | 0 | 0.0 | 0.0 | 0.08 | 0.78 | 0.78 | 86 | 1015.2 |
| 20260504003058 | 75 | 0 | 0.0 | 0.0 | 0.08 | 0.78 | 0.78 | 86 | 1015.3 |
| 20260504002557 | 75 | 0 | 0.0 | 1.0 | 0.08 | 0.78 | 0.78 | 86 | 1015.3 |
| 20260504002101 | 75 | 0 | 0.0 | 3.0 | 0.08 | 0.78 | 0.78 | 85 | 1015.3 |
| 20260504001611 | 75 | 0 | 0.0 | 3.0 | 0.08 | 0.78 | 0.78 | 85 | 1015.4 |
| 20260504001100 | 75 | 0 | 0.0 | 5.0 | 0.08 | 0.78 | 0.78 | 85 | 1015.4 |
| 20260504000557 | 75 | 5 | 1.0 | 8.0 | 0.08 | 0.78 | 0.78 | 85 | 1015.3 |